Location: Newark
(41.2758°N, 92.6808°W)
Time: 16:15:32
(UTC+00:00)

Envisat - Visible Passes

Search period start: 22 September 2019 00:00
Search period end: 02 October 2019 00:00
Orbit: 764 x 766 km, 98.1° (Epoch: 22 September)

Date Brightness Start Highest point End Pass type
(mag) Time Alt. Az. Time Alt. Az. Time Alt. Az.
22 Sep 5.7 01:28:20 10° SW 01:32:05 21° W 01:35:53 10° NW visible
23 Sep 4.2 00:50:14 10° S 00:55:05 46° W 00:59:59 10° NNW visible
24 Sep 6.2 01:56:16 10° WSW 01:57:53 11° W 01:59:31 10° WNW visible
25 Sep 5.3 01:16:32 10° SSW 01:20:45 26° W 01:24:59 10° NW visible
26 Sep 3.7 00:38:49 10° S 00:43:48 58° W 00:48:50 10° NNW visible
27 Sep 6.0 01:43:40 10° SW 01:46:30 15° W 01:49:20 10° NW visible
28 Sep 4.9 01:04:52 10° SSW 01:09:25 33° W 01:14:00 10° NNW visible
29 Sep 3.3 00:27:28 10° S 00:32:32 74° WSW 00:37:37 10° NNW visible
30 Sep 5.8 01:31:35 10° SW 01:35:07 19° W 01:38:41 10° NW visible
01 Oct 4.4 00:53:19 10° SSW 00:58:06 42° W 01:02:55 10° NNW visible
